KE5HYT Weather Reports


time (UTC)temp
C
wind
direction
speed
KPH
gust
KPH
rain 1hr
cm
rain 24hr
cm
rain mn
cm
humidity
%
barometer
mb
20260505025425 16 190 1.6 3.2 0.00 0.00 0.00 75 1011.5
20260505024504 16 190 1.6 3.2 0.00 0.00 0.00 75 1011.5
20260505023604 16 190 0.0 1.6 0.00 0.00 0.00 75 1011.5
20260505022705 17 190 1.6 3.2 0.00 0.00 0.00 74 1011.4
20260505021826 17 190 0.0 3.2 0.00 0.00 0.00 73 1011.2
20260505020904 17 196 3.2 4.8 0.00 0.00 0.00 72 1011.1
20260505020004 17 200 1.6 4.8 0.00 0.00 0.00 73 1011.1
20260505015404 18 190 1.6 1.6 0.00 0.00 0.00 70 1011.0
20260505014504 18 190 1.6 3.2 0.00 0.00 0.00 69 1011.1
20260505013604 18 190 1.6 3.2 0.00 0.00 0.00 69 1011.0
20260505012705 18 196 1.6 4.8 0.00 0.00 0.00 67 1010.9
20260505011804 19 204 1.6 4.8 0.00 0.00 0.00 65 1010.9
20260505010904 20 187 3.2 6.4 0.00 0.00 0.00 64 1010.9
20260505010005 20 184 1.6 4.8 0.00 0.00 0.00 62 1010.8
20260505005404 20 181 1.6 4.8 0.00 0.00 0.00 59 1011.0
20260505004504 21 179 3.2 4.8 0.00 0.00 0.00 57 1011.0
20260505003604 21 179 3.2 8.0 0.00 0.00 0.00 55 1011.0
20260505002704 22 188 3.2 9.7 0.00 0.00 0.00 55 1010.9
20260505001804 22 189 4.8 9.7 0.00 0.00 0.00 51 1010.9
20260505000904 23 195 4.8 12.9 0.00 0.00 0.00 48 1010.9
20260505000004 23 191 4.8 14.5 0.00 0.00 0.00 47 1010.9
20260504235425 23 207 4.8 19.3 0.00 0.00 0.00 47 1010.9
20260504234505 23 193 4.8 12.9 0.00 0.00 0.00 45 1010.8
20260504233604 24 191 6.4 19.3 0.00 0.00 0.00 46 1010.9
20260504232704 24 183 9.7 19.3 0.00 0.00 0.00 43 1010.9
20260504231804 24 189 9.7 27.4 0.00 0.00 0.00 43 1010.8
20260504230925 25 191 9.7 25.7 0.00 0.00 0.00 42 1010.9
20260504230005 25 196 8.0 16.1 0.00 0.00 0.00 42 1010.9
20260504225404 25 206 8.0 17.7 0.00 0.00 0.00 41 1010.9
20260504224504 26 202 8.0 19.3 0.00 0.00 0.00 42 1010.9
20260504223604 26 210 8.0 25.7 0.00 0.00 0.00 42 1010.9
20260504222704 26 210 8.0 22.5 0.00 0.00 0.00 39 1010.9
20260504221825 26 204 11.3 27.4 0.00 0.00 0.00 40 1010.9
20260504220904 26 194 11.3 24.1 0.00 0.00 0.00 40 1011.1
20260504220025 26 199 9.7 30.6 0.00 0.00 0.00 41 1011.1
20260504215404 26 200 9.7 30.6 0.00 0.00 0.00 39 1011.0
20260504214504 27 202 9.7 20.9 0.00 0.00 0.00 41 1011.0
20260504213604 27 207 8.0 20.9 0.00 0.00 0.00 39 1011.1
20260504212725 27 203 6.4 17.7 0.00 0.00 0.00 43 1011.3
20260504211804 27 204 9.7 25.7 0.00 0.00 0.00 42 1011.2
20260504210904 27 196 8.0 20.9 0.00 0.00 0.00 39 1011.2
20260504210004 26 200 12.9 32.2 0.00 0.00 0.00 40 1011.5
20260504205404 26 195 14.5 32.2 0.00 0.00 0.00 41 1011.7
20260504204504 27 189 11.3 32.2 0.00 0.00 0.00 43 1011.7
20260504203604 27 185 9.7 22.5 0.00 0.00 0.00 40 1011.6
20260504202704 26 189 12.9 25.7 0.00 0.00 0.00 40 1011.9
20260504201804 27 200 8.0 20.9 0.00 0.00 0.00 42 1012.0
20260504200925 27 207 9.7 24.1 0.00 0.00 0.00 41 1012.2
20260504200004 27 189 11.3 25.7 0.00 0.00 0.00 40 1012.3
20260504195404 27 183 14.5 33.8 0.00 0.00 0.00 39 1012.4
20260504194504 27 188 9.7 22.5 0.00 0.00 0.00 41 1012.4
20260504193604 27 204 8.0 24.1 0.00 0.00 0.00 43 1012.7
20260504192704 26 211 8.0 22.5 0.00 0.00 0.00 42 1012.7
20260504191804 27 202 11.3 22.5 0.00 0.00 0.00 44 1012.7
20260504190925 27 189 8.0 22.5 0.00 0.00 0.00 42 1012.8
20260504190004 26 193 11.3 22.5 0.00 0.00 0.00 43 1012.9
20260504185404 26 189 9.7 22.5 0.00 0.00 0.00 43 1013.1
20260504184504 26 199 9.7 27.4 0.00 0.00 0.00 41 1013.1
20260504183604 26 208 8.0 22.5 0.00 0.00 0.00 37 1013.0
20260504182704 26 206 8.0 22.5 0.00 0.00 0.00 44 1013.1
20260504181804 26 189 8.0 24.1 0.00 0.00 0.00 44 1013.2
20260504180904 26 187 11.3 25.7 0.00 0.00 0.00 44 1013.4
20260504180004 26 195 8.0 22.5 0.00 0.00 0.00 43 1013.2
20260504175404 26 197 8.0 20.9 0.00 0.00 0.00 45 1013.3
20260504174504 26 190 9.7 25.7 0.00 0.00 0.00 46 1013.4
20260504173604 26 195 9.7 27.4 0.00 0.00 0.00 43 1013.6
20260504172704 26 188 8.0 17.7 0.00 0.00 0.00 47 1013.8
20260504171804 25 206 9.7 19.3 0.00 0.00 0.00 51 1013.9
20260504170925 25 208 9.7 19.3 0.00 0.00 0.00 48 1014.0
20260504150903 22 205 6.4 14.5 0.00 0.00 0.00 59 1015.3
20260504140925 17 201 4.8 16.1 0.00 0.00 0.00 73 1015.5
20260504081803 11 185 3.2 4.8 0.00 0.00 0.00 79 1015.2
20260504080903 12 195 3.2 6.4 0.00 0.00 0.00 77 1015.2
20260504050006 11 175 1.6 4.8 0.00 0.00 0.00 84 1016.7
20260504045404 11 169 3.2 4.8 0.00 0.00 0.00 83 1016.6
20260504044505 11 155 3.2 4.8 0.00 0.00 0.00 84 1016.7
20260504043625 11 154 1.6 3.2 0.00 0.00 0.00 84 1016.6
20260504042725 11 154 1.6 4.8 0.00 0.00 0.00 84 1016.7
20260504041804 11 154 1.6 3.2 0.00 0.00 0.00 84 1016.8
20260504040905 11 154 1.6 3.2 0.00 0.00 0.00 85 1017.0
20260504040026 11 154 1.6 1.6 0.00 0.00 0.00 84 1017.0
20260504035405 11 154 0.0 1.6 0.00 0.00 0.00 83 1017.1
20260504034505 11 0 0.0 0.0 0.00 0.00 0.00 82 1017.1
20260504033604 11 0 0.0 0.0 0.00 0.00 0.00 81 1017.3
20260504032704 11 0 0.0 0.0 0.00 0.00 0.00 79 1017.1
20260504031804 12 0 0.0 0.0 0.00 0.00 0.00 79 1017.2
20260504030904 12 0 0.0 0.0 0.00 0.00 0.00 79 1017.3
20260504030004 12 0 0.0 0.0 0.00 0.00 0.00 78 1017.2